Location: Newark
(49.3000°N, 9.4667°E)
Time: 16:40:34
(UTC+00:00)

Transit 2A Rocket - Pass Details

Date: 25 May 2019
Orbit: 586 x 917 km, 66.7° (Epoch: 16 June)

Event Time Altitude Azimuth Distance (km) Brightness Sun altitude
Rises 21:53:34 0° 317° (NW) 3,523 9.7 -17.1°
Reaches altitude 10° 21:57:07 10° 337° (NNW) 2,540 9.0 -17.3°
Maximum altitude 22:00:52 17° 17° (NNE) 2,026 7.9 -17.6°
Drops below altitude 10° 22:04:28 10° 57° (ENE) 2,414 7.7 -17.7°
Sets 22:07:42 0° 78° (ENE) 3,275 8.2 -17.9°
